{"data":{"norad_id":48241,"intl_designator":"2021-031AH","name":"ONEWEB-0201","alt_names":[],"object_type":"PAYLOAD","status":"ACTIVE","operator":null,"country":"UK","launch_date":"2021-04-25","launch_site_code":"VOSTO","launch_vehicle":null,"mission":null,"orbit_class":"UNKNOWN","rcs_meters":null,"size_class":null,"mass_kg":null,"dimensions":null,"purposes":["comms"],"wikipedia_slug":null,"has_3d_model":false,"image_url":null,"decayed_at":null,"tle_current":{"epoch":"2026-05-24T19:55:12.026784Z","epoch_age_seconds":89846,"freshness":"FRESH","line1":"1 48241U 21031AH  26144.83000031 -.00000249  00000+0 -70666-3 0  9992","line2":"2 48241  87.8940 294.3726 0002060 104.4506 255.6853 13.14503426245316","mean_motion":13.14503426,"eccentricity":0.000206,"inclination_deg":87.894,"raan_deg":294.3726,"arg_perigee_deg":104.4506,"mean_anomaly_deg":255.6853,"bstar":-0.00070666,"rev_number":24531,"period_min":109.5470708952,"perigee_km":1204.2256583318,"apogee_km":1207.3502354099,"semimajor_km":7583.9249468709,"source":"CELESTRAK","updated_at":"2026-05-25T13:38:22.440078Z"}}}